Location: St Paul
(33.9360°N, 83.4200°W)
Time: 10:22:09
(UTC-05:00)

Cosmos 1295 Rocket - Pass Details

Date: 06 October 2017
Orbit: 944 x 993 km, 82.9° (Epoch: 10 December)

Event Time Altitude Azimuth Distance (km) Brightness Sun altitude
Rises 19:55:34 0° 177° (S) 3,598 7.4 -10.1°
Reaches altitude 10° 19:58:03 10° 174° (S) 2,655 6.7 -10.6°
Maximum altitude 20:04:02 67° 93° (E) 1,021 4.4 -11.9°
Drops below altitude 10° 20:10:05 10° 12° (NNE) 2,673 6.7 -13.1°
Sets 20:12:35 0° 10° (N) 3,625 7.4 -13.6°
